Location: Claremont
(33.9858°S, 18.4575°E)
Time: 11:10:48
(UTC+00:00)

HJ-1C - Pass Details

Date: 03 March 2021
Orbit: 428 x 441 km, 97.1° (Epoch: 10 April)

Event Time Altitude Azimuth Distance (km) Brightness Sun altitude
Rises 18:10:35 0° 162° (SSE) 2,470 7.1 -11.1°
Reaches altitude 10° 18:12:41 10° 155° (SSE) 1,590 6.1 -11.5°
Maximum altitude 18:15:58 45° 81° (E) 623 3.6 -12.2°
Drops below altitude 10° 18:19:13 10° 7° (N) 1,566 5.9 -12.8°
Sets 18:21:16 0° 360° (N) 2,427 6.9 -13.3°
